Probability
35 32 35 48 45 52 58 68 71 74 74 71 74 77 77 74 65 61 87 71 77 87 94 90 87 87 90 94 94 94 97 97 97 97 97 97 94 87 87 74 71 45 32
23 16 26 32 32 35 42 52 65 65 65 61 61 58 61 61 61 68 71 71 71 77 87 90 90 84 87 81 87 90 97 97 97 97 100 100 97 94 90 77 71 52 32
10 13 6 6 10 23 42 35 45 48 55 58 52 52 55 48 52 55 52 58 65 68 77 87 90 90 84 77 77 87 94 94 97 97 100 100 100 100 97 94 81 68 39
0 0 3 3 6 3 16 23 19 16 23 32 39 35 32 39 39 42 45 55 65 52 68 71 81 81 81 71 68 81 84 81 90 90 97 100 100 100 100 100 97 84 58
0 0 0 0 3 0 3 3 6 10 10 13 13 19 23 29 29 29 29 32 48 45 52 48 52 65 65 65 65 68 71 74 77 84 90 94 94 97 97 97 97 77 45
0 0 0 0 0 0 0 0 6 6 6 6 0 0 3 6 16 19 23 19 29 26 23 29 45 65 68 61 58 58 68 77 77 81 87 97 97 94 87 84 81 68 45
0 0 0 0 0 0 0 0 0 0 0 0 0 0 0 0 0 6 3 13 13 16 16 26 35 35 55 48 45 52 55 65 74 77 74 77 90 94 81 84 58 45 45
0 0 0 0 0 0 0 0 0 0 0 0 0 0 0 0 0 0 0 3 3 6 10 10 16 29 32 61 42 42 45 58 58 68 68 68 71 77 77 81 61 32 35
0 0 0 0 0 0 0 0 0 0 0 0 0 0 0 0 0 0 0 0 3 6 3 3 6 19 23 32 32 16 39 39 48 55 65 65 65 61 58 68 71 55 23
0 0 0 0 0 0 0 0 0 0 0 3 3 0 0 0 0 0 0 0 0 0 0 0 3 3 3 6 10 3 10 13 23 39 58 61 65 52 52 61 68 74 61
0 0 0 0 0 0 0 0 0 0 0 0 0 0 0 0 0 0 0 0 0 0 0 0 0 0 0 0 6 0 0 0 6 13 19 39 52 48 55 61 65 68 68
0 0 0 0 0 0 0 0 0 0 0 0 0 0 0 0 0 0 0 0 0 0 0 0 0 0 0 0 0 0 0 0 0 0 6 10 16 29 42 48 52 61 61
0 0 0 0 0 0 0 0 0 0 0 0 0 0 0 0 0 0 0 0 0 0 0 0 0 0 0 0 0 0 0 0 0 0 0 0 0 10 16 26 35 48 45
0 3 0 0 0 0 0 0 0 0 0 0 0 0 0 0 0 0 0 0 0 0 0 0 0 0 0 0 0 0 0 0 0 0 0 0 0 0 0 3 3 16 19
3 3 3 3 0 0 0 0 0 0 0 0 0 0 0 0 0 0 0 0 0 0 0 0 0 0 0 0 0 0 0 0 0 0 0 0 0 0 0 0 0 0 0
3 3 3 3 0 0 0 0 0 0 0 0 0 0 0 0 0 0 0 0 0 0 0 0 0 0 0 0 0 0 0 0 0 0 0 0 0 0 0 0 0 0 0
26 13 3 3 0 0 0 0 0 0 0 0 0 0 0 0 0 0 0 0 0 0 0 0 0 0 0 0 0 0 0 0 0 0 0 0 0 0 0 0 0 0 0
39 19 10 3 0 0 0 0 0 0 0 0 3 0 0 0 0 0 0 0 0 0 0 0 0 0 0 0 0 0 0 0 0 0 0 0 0 0 0 0 0 0 0
45 23 16 13 3 0 0 0 3 0 0 3 3 3 3 3 3 0 0 0 0 0 0 0 0 0 0 0 0 0 0 0 0 0 0 0 0 0 0 0 0 0 0
45 35 23 19 6 6 6 6 6 6 6 6 6 6 3 3 3 3 3 3 0 0 0 0 0 0 0 0 0 0 0 0 0 0 0 0 0 0 0 0 0 0 0
39 39 26 23 19 6 6 6 6 6 10 6 6 6 6 3 3 3 0 3 0 0 0 0 0 0 0 0 0 0 0 0 0 0 0 0 0 0 0 0 0 0 0
45 39 32 23 19 0 0 0 0 6 6 10 6 6 6 3 0 0 0 0 0 0 0 0 0 0 0 0 0 0 0 0 0 0 0 0 0 0 0 0 0 0 0
58 58 42 23 16 13 0 0 0 0 0 6 23 26 6 3 0 3 0 0 0 0 0 0 0 0 3 0 0 0 0 0 0 0 0 0 0 0 0 0 0 0 0
58 55 52 32 32 16 0 0 0 0 0 3 10 23 26 16 3 3 3 3 0 0 0 0 0 0 0 0 0 0 0 0 0 0 0 0 0 0 0 0 0 0 0
29 26 23 16 23 16 0 0 0 0 0 0 0 0 10 6 3 0 0 3 3 3 0 0 0 0 0 0 0 0 0 0 0 0 0 0 0 0 0 0 0 0 0
19 13 10 10 6 13 0 0 0 0 0 0 3 0 0 0 0 0 0 0 0 3 0 0 0 0 0 0 0 0 0 0 0 0 0 0 0 0 0 0 0 0 0
Height
5889 5888 5888 5888 5888 5888 5888 5888 5888 5888 5888 5888 5888 5889 5889 5889 5889 5890 5891 5892 5893 5893 5894 5895 5896 5897 5898 5899 5900 5902 5904 5906 5907 5909 5911 5912 5913 5915 5916 5917 5918 5919 5920
5887 5887 5886 5886 5886 5886 5886 5886 5886 5886 5886 5886 5886 5887 5887 5887 5887 5888 5888 5889 5890 5891 5891 5892 5893 5893 5895 5896 5897 5899 5901 5903 5905 5907 5908 5910 5912 5913 5915 5916 5917 5918 5919
5885 5885 5885 5885 5885 5885 5885 5885 5884 5884 5884 5884 5884 5885 5885 5885 5885 5885 5886 5886 5887 5888 5888 5889 5890 5890 5891 5892 5894 5896 5897 5899 5901 5904 5906 5908 5909 5911 5913 5914 5916 5917 5918
5884 5884 5883 5883 5883 5883 5883 5883 5883 5883 5883 5883 5883 5882 5883 5883 5883 5883 5883 5884 5884 5885 5886 5886 5887 5887 5888 5889 5890 5892 5893 5895 5898 5900 5902 5904 5906 5908 5910 5912 5914 5915 5916
5883 5883 5882 5882 5882 5882 5882 5882 5881 5881 5881 5881 5881 5881 5881 5881 5881 5881 5881 5881 5882 5882 5883 5883 5884 5884 5885 5886 5886 5887 5889 5891 5893 5896 5898 5900 5902 5904 5907 5909 5911 5913 5914
5882 5882 5882 5881 5881 5881 5881 5881 5880 5880 5880 5880 5880 5880 5879 5879 5879 5879 5879 5879 5879 5880 5880 5880 5881 5881 5882 5882 5883 5884 5885 5887 5889 5891 5893 5895 5898 5900 5902 5905 5907 5909 5911
5881 5881 5881 5881 5881 5880 5880 5880 5880 5879 5879 5879 5879 5878 5878 5878 5877 5877 5877 5877 5877 5877 5877 5877 5878 5878 5878 5879 5880 5881 5882 5883 5885 5886 5888 5890 5893 5895 5898 5900 5903 5905 5907
5881 5881 5881 5881 5881 5880 5880 5880 5879 5879 5878 5878 5878 5877 5877 5877 5876 5875 5875 5875 5875 5874 5874 5874 5875 5875 5875 5876 5876 5877 5878 5879 5880 5882 5883 5885 5887 5890 5892 5895 5897 5900 5902
5880 5880 5880 5880 5880 5880 5880 5879 5879 5878 5878 5877 5877 5876 5876 5876 5875 5874 5873 5873 5872 5872 5872 5872 5872 5872 5872 5872 5873 5873 5874 5875 5876 5877 5878 5880 5882 5884 5887 5889 5892 5894 5897
5880 5880 5880 5880 5880 5880 5879 5879 5878 5878 5877 5877 5876 5875 5875 5874 5873 5872 5872 5871 5870 5869 5869 5869 5868 5868 5868 5868 5869 5869 5870 5871 5871 5872 5873 5875 5877 5879 5881 5883 5885 5888 5890
5879 5879 5879 5880 5879 5879 5879 5878 5878 5877 5876 5876 5875 5874 5873 5872 5871 5870 5869 5869 5868 5867 5866 5865 5865 5865 5865 5864 5865 5865 5866 5866 5867 5868 5869 5870 5871 5873 5875 5876 5878 5881 5883
5878 5878 5879 5879 5878 5878 5878 5877 5877 5876 5875 5874 5873 5872 5871 5870 5869 5868 5867 5866 5865 5864 5863 5862 5861 5861 5860 5860 5860 5860 5861 5861 5862 5862 5863 5864 5865 5867 5868 5870 5872 5874 5876
5877 5877 5877 5877 5877 5876 5876 5875 5875 5874 5873 5872 5871 5870 5869 5867 5866 5865 5864 5863 5861 5860 5859 5858 5857 5856 5856 5855 5855 5855 5855 5856 5856 5856 5857 5858 5859 5860 5861 5863 5864 5866 5868
5875 5876 5875 5875 5875 5874 5874 5873 5872 5871 5870 5869 5868 5866 5865 5864 5862 5861 5860 5859 5857 5856 5855 5854 5853 5852 5851 5850 5850 5849 5849 5849 5850 5850 5850 5851 5852 5853 5854 5855 5857 5858 5860
5873 5873 5873 5873 5872 5872 5871 5870 5869 5868 5867 5866 5864 5863 5861 5860 5858 5857 5855 5854 5853 5851 5850 5849 5848 5847 5846 5844 5844 5843 5843 5843 5842 5843 5843 5844 5844 5845 5846 5847 5849 5850 5852
5870 5870 5870 5869 5869 5868 5867 5866 5865 5864 5863 5861 5860 5858 5857 5855 5854 5852 5850 5848 5847 5846 5844 5842 5842 5841 5839 5838 5837 5836 5835 5835 5835 5835 5835 5835 5836 5837 5838 5839 5840 5841 5843
5866 5866 5865 5865 5864 5863 5862 5861 5860 5859 5857 5856 5855 5853 5852 5850 5848 5846 5844 5843 5841 5839 5837 5836 5834 5833 5832 5831 5830 5829 5828 5827 5827 5826 5826 5826 5827 5827 5828 5829 5830 5832 5833
5861 5861 5860 5859 5859 5858 5857 5855 5854 5852 5851 5850 5848 5847 5846 5844 5842 5840 5838 5836 5834 5832 5830 5828 5826 5825 5824 5823 5822 5821 5820 5819 5818 5818 5817 5817 5817 5817 5818 5819 5820 5821 5823
5856 5855 5855 5854 5853 5851 5850 5849 5847 5846 5844 5843 5841 5840 5838 5836 5835 5833 5831 5829 5827 5825 5823 5821 5819 5817 5816 5815 5814 5813 5811 5810 5809 5808 5808 5807 5807 5807 5807 5808 5809 5810 5812
5850 5849 5848 5847 5846 5845 5843 5841 5840 5838 5836 5835 5833 5831 5830 5828 5826 5824 5822 5820 5818 5816 5814 5812 5810 5808 5807 5805 5804 5803 5802 5801 5800 5798 5798 5797 5796 5796 5796 5796 5797 5798 5799
5843 5842 5841 5840 5838 5837 5835 5833 5831 5830 5828 5826 5824 5822 5821 5819 5817 5815 5813 5811 5809 5807 5805 5803 5801 5799 5797 5795 5794 5793 5792 5790 5789 5787 5787 5786 5785 5785 5784 5784 5784 5785 5786
5835 5834 5833 5831 5830 5828 5827 5824 5822 5820 5818 5817 5815 5813 5811 5809 5807 5805 5803 5800 5799 5796 5794 5792 5791 5789 5787 5785 5783 5782 5780 5779 5778 5777 5775 5774 5773 5772 5772 5771 5772 5772 5772
5826 5825 5823 5822 5820 5819 5817 5814 5811 5809 5808 5807 5804 5802 5800 5797 5796 5794 5791 5789 5787 5785 5783 5781 5780 5778 5775 5773 5772 5770 5769 5767 5766 5764 5763 5762 5760 5759 5758 5758 5758 5758 5758
5817 5815 5813 5812 5810 5808 5805 5803 5800 5798 5796 5795 5793 5790 5788 5785 5783 5781 5778 5777 5775 5773 5771 5768 5767 5766 5763 5761 5759 5757 5756 5754 5753 5752 5750 5749 5747 5745 5745 5744 5744 5744 5744
5806 5804 5803 5800 5798 5796 5793 5790 5787 5785 5783 5782 5779 5777 5775 5773 5771 5767 5764 5762 5761 5760 5757 5755 5754 5752 5750 5748 5745 5744 5742 5741 5740 5738 5736 5735 5733 5731 5730 5730 5729 5729 5730
5795 5793 5790 5788 5786 5783 5780 5777 5774 5771 5769 5767 5765 5763 5761 5759 5756 5753 5749 5747 5747 5746 5742 5740 5739 5738 5736 5734 5731 5729 5728 5726 5725 5725 5722 5721 5719 5717 5716 5716 5715 5715 5715
Wind_Speed
8 7 7 7 7 7 7 7 7 7 7 7 8 9 9 10 10 11 12 12 13 14 14 15 15 15 15 15 16 17 17 17 16 15 14 14 14 13 12 11 10 8 7
6 6 6 6 6 6 6 6 6 6 6 7 7 8 9 10 11 11 12 12 13 13 14 14 15 15 15 16 17 18 19 19 18 18 17 16 16 15 14 13 12 10 9
5 5 5 5 5 5 5 6 6 6 6 6 6 7 8 9 10 11 12 13 13 13 13 13 14 15 16 16 18 19 20 21 20 20 19 18 18 17 16 15 14 13 11
4 3 3 3 4 4 5 5 5 4 5 5 5 6 7 8 9 11 12 13 13 13 13 14 14 15 15 16 17 19 21 22 23 22 22 21 20 19 18 18 17 15 14
2 2 2 2 2 2 3 3 3 3 4 4 4 5 5 7 8 9 10 12 13 14 14 14 15 15 16 16 17 18 21 22 24 24 24 24 23 22 21 20 19 18 17
1 1 1 1 1 2 2 2 2 3 3 4 4 4 5 6 7 9 10 11 12 13 14 15 15 16 17 17 18 18 18 21 23 25 26 26 26 25 24 23 22 21 20
1 1 0 1 1 2 2 2 2 3 3 3 3 3 4 5 6 8 9 10 11 12 13 14 15 16 17 18 18 19 19 19 22 24 26 28 28 27 27 26 26 25 24
1 1 1 1 1 2 2 2 3 3 3 3 3 3 4 5 6 7 8 9 11 12 13 14 15 16 16 17 18 19 19 20 21 23 24 27 29 29 29 29 29 28 27
2 1 1 1 1 2 2 3 3 3 3 3 3 4 5 5 6 7 8 9 10 11 12 13 14 16 16 17 18 18 19 20 21 21 22 24 28 30 31 31 31 30 30
2 2 1 1 1 1 2 3 3 4 4 4 4 5 6 7 8 8 9 10 11 12 13 14 15 15 16 17 18 19 19 20 22 22 23 24 24 26 28 31 33 33 33
3 3 2 2 1 1 2 3 4 4 5 5 6 6 7 8 9 10 10 11 12 13 14 15 16 17 17 18 19 20 20 21 22 24 24 26 26 26 27 29 32 35 35
4 4 4 4 3 3 4 4 5 6 7 7 8 9 9 10 10 11 12 13 13 14 16 17 18 18 19 20 20 21 22 22 23 24 25 26 28 29 29 29 30 33 36
6 6 6 6 6 6 7 7 8 8 9 10 11 11 12 12 13 13 14 15 15 16 17 18 19 20 21 22 22 23 23 24 24 25 26 27 28 29 31 31 32 33 33
8 8 8 9 9 9 10 10 11 11 12 12 13 13 14 15 15 15 16 17 17 18 19 19 20 21 22 23 24 25 26 26 27 27 28 28 29 30 31 32 34 35 35
9 10 10 11 12 12 13 13 14 15 15 15 16 16 17 17 17 18 18 19 19 20 21 21 21 22 23 24 25 26 27 28 29 29 30 30 31 32 32 33 34 36 37
12 13 13 14 15 15 16 16 17 17 18 18 19 19 19 19 20 20 21 21 22 22 23 24 23 23 24 24 25 27 28 29 30 31 32 32 33 34 34 35 35 36 37
16 16 17 17 18 18 19 20 20 21 21 21 21 21 21 22 22 22 23 23 24 24 25 26 26 26 26 26 26 27 28 29 30 31 33 34 34 35 36 37 37 38 39
20 20 21 21 21 22 22 23 23 23 23 23 24 24 24 24 24 25 25 25 26 26 27 28 29 29 28 28 28 28 29 29 31 32 33 34 35 36 38 39 39 40 41
23 24 24 24 24 25 25 25 25 26 26 26 26 26 27 27 27 27 27 28 28 28 28 29 30 31 31 30 30 30 30 30 31 32 33 35 36 37 38 40 41 42 43
27 27 27 27 27 27 28 28 28 28 29 29 29 29 29 29 30 30 30 30 30 30 31 31 31 32 32 33 33 33 32 32 32 33 34 35 36 38 39 41 42 43 44
29 29 29 29 29 29 30 30 30 31 32 32 32 32 32 32 32 32 32 33 33 33 33 33 33 34 35 35 35 35 35 35 34 35 35 36 37 38 40 41 42 44 45
31 31 31 31 31 31 32 32 33 34 34 34 34 35 35 35 35 35 36 36 36 36 36 36 36 36 37 38 38 38 37 37 37 38 38 38 39 39 41 42 43 44 46
33 33 33 34 34 34 35 36 37 38 37 36 37 38 38 39 39 39 39 39 39 39 40 40 39 39 40 40 40 40 40 40 40 40 40 40 41 42 42 43 44 45 46
36 36 36 37 37 37 39 40 42 42 41 40 41 41 41 42 43 43 44 43 43 42 43 44 43 42 42 43 43 43 42 42 42 42 42 42 43 44 44 44 45 45 46
38 39 40 41 41 42 43 44 45 46 46 45 45 45 46 46 46 47 48 48 46 46 46 46 45 44 44 45 46 46 45 45 44 44 44 44 44 45 45 45 46 46 47
41 42 43 44 45 46 47 48 49 50 50 50 50 50 50 49 50 50 52 52 50 49 50 50 48 47 47 47 48 48 48 47 47 46 46 46 45 46 46 46 46 46 46
Wind_Direction
271 272 274 279 278 277 277 279 281 278 275 272 266 263 263 259 256 249 248 247 248 248 246 245 238 235 233 232 229 224 221 222 223 224 224 224 223 224 224 223 221 220 219
266 269 273 276 278 277 276 276 280 280 276 270 264 262 264 262 262 256 254 253 252 252 249 248 245 242 238 237 235 232 227 225 225 225 226 226 226 226 226 226 224 224 224
264 269 273 273 276 277 279 282 284 280 278 276 269 261 261 261 263 262 260 258 255 254 253 253 255 250 245 243 238 235 232 228 227 227 227 227 227 228 228 228 228 228 227
264 267 273 275 275 278 282 286 287 283 281 282 278 270 264 263 263 264 261 259 257 258 257 257 260 260 257 251 246 239 234 231 229 228 228 228 229 229 230 230 231 231 231
247 260 274 275 282 288 295 299 297 290 286 286 284 278 272 268 267 267 266 262 260 260 260 259 260 262 262 259 255 247 241 236 235 232 230 229 229 229 230 231 232 234 234
206 252 284 316 335 337 338 337 330 317 302 294 287 281 275 271 269 268 266 264 263 263 262 261 261 263 262 260 261 257 251 246 240 236 233 231 230 230 231 232 233 234 236
165 138 74 25 9 11 8 1 355 345 331 319 306 294 285 277 274 271 270 268 267 265 262 262 263 264 262 260 259 260 259 256 250 244 239 234 233 232 232 233 234 235 236
170 138 83 47 36 29 19 11 7 1 352 340 326 311 301 294 288 282 278 275 272 269 267 266 266 264 263 260 259 258 258 258 257 252 247 239 236 235 234 235 236 237 237
177 157 130 88 64 44 34 25 21 15 3 349 333 320 309 300 294 291 286 281 279 276 273 270 268 266 265 265 262 260 259 258 258 257 254 249 242 239 237 237 237 237 238
174 168 172 166 132 37 10 7 1 356 353 348 338 327 318 311 304 296 290 286 283 280 278 274 272 269 267 266 266 264 261 260 258 258 256 253 252 248 245 242 239 239 240
198 207 210 216 239 290 322 331 337 338 336 332 328 324 320 315 309 304 298 292 287 284 281 278 275 273 271 269 268 267 263 261 259 258 258 256 254 252 250 248 244 241 241
222 230 233 245 261 276 290 303 309 312 314 311 311 312 312 311 308 305 301 297 292 288 284 281 278 276 274 272 270 268 266 263 261 260 258 257 255 253 252 251 250 246 243
238 243 248 257 267 275 282 289 295 298 300 301 302 304 306 307 306 303 301 297 295 291 287 284 281 278 276 273 271 270 267 265 264 262 261 259 258 255 253 251 251 250 248
245 250 256 262 268 275 280 283 287 291 294 296 296 298 300 303 302 300 299 298 295 292 288 285 283 280 278 275 273 270 268 267 265 264 263 261 260 258 256 254 252 251 250
252 255 260 265 270 275 278 280 285 287 290 292 292 294 295 296 297 297 296 296 295 293 290 287 284 282 280 278 275 273 271 268 266 265 264 262 261 260 258 257 255 253 251
258 260 264 269 274 277 279 280 283 285 287 288 288 289 290 291 292 292 292 292 293 292 290 287 285 283 281 280 278 276 274 271 269 267 265 264 262 261 260 259 257 255 254
263 266 268 272 275 277 279 281 283 284 285 286 286 286 287 288 289 290 289 290 291 290 289 287 286 284 282 280 278 276 275 273 271 270 268 266 264 262 261 260 259 258 256
267 270 272 274 277 279 280 282 283 284 284 285 285 285 286 287 286 287 288 287 289 289 288 287 287 285 283 281 280 278 276 275 273 271 270 268 266 265 263 262 260 259 258
271 273 275 277 280 281 282 283 284 285 285 285 285 285 285 286 286 286 286 286 286 287 287 286 285 285 284 282 281 280 279 277 276 274 272 270 268 267 265 264 262 260 259
275 276 278 280 281 283 284 285 285 285 285 285 285 285 285 285 286 286 286 285 286 286 285 284 284 283 283 282 282 281 280 278 277 276 274 273 271 269 268 266 264 262 260
277 278 280 281 283 284 284 284 284 284 284 285 284 284 284 285 285 286 286 285 286 286 286 284 283 282 282 282 282 281 280 279 278 278 277 276 274 272 270 268 267 265 263
278 280 281 282 283 284 283 283 283 283 284 285 285 283 283 284 285 286 286 285 286 286 286 285 284 283 282 282 282 281 281 280 280 279 279 279 277 275 273 270 268 266 264
279 281 282 283 284 284 283 283 283 283 284 285 285 283 283 283 283 284 284 285 286 286 285 284 284 284 283 283 282 282 281 281 281 281 281 280 279 277 275 273 270 269 266
280 280 281 283 284 284 283 283 283 283 284 284 284 284 283 284 284 284 283 284 284 284 284 283 283 283 283 283 282 282 281 281 281 281 282 281 279 278 277 275 272 270 268
280 281 282 283 284 284 284 284 285 285 285 285 285 285 285 284 284 284 283 283 283 284 283 281 282 282 282 282 282 282 282 281 281 282 281 281 280 278 277 276 273 271 268
282 283 284 284 284 284 284 285 285 284 284 284 284 284 284 284 283 282 282 282 282 283 282 281 281 281 281 281 281 281 281 281 281 281 281 280 279 278 277 275 273 271 269